EW5975 Weather Reports


time (UTC)temp
C
wind
direction
speed
KPH
gust
KPH
rain 1hr
cm
rain 24hr
cm
rain mn
cm
humidity
%
barometer
mb
20260510103017 18 113 1.6 4.8 0.00 0.00 0.00 72 1011.9
20260510102017 18 135 3.2 8.0 0.00 0.00 0.00 70 1011.8
20260510101017 19 113 3.2 11.3 0.00 0.00 0.00 69 1011.7
20260510100016 19 113 1.6 6.4 0.00 0.00 0.00 68 1011.6
20260510095016 19 113 3.2 11.3 0.00 0.00 0.00 71 1011.5
20260510094016 18 203 3.2 9.7 0.00 0.00 0.00 74 1011.6
20260510093016 17 113 1.6 4.8 0.00 0.00 0.00 75 1011.6
20260510092036 17 203 1.6 4.8 0.00 0.00 0.00 75 1011.7
20260510091018 17 113 1.6 4.8 0.00 0.00 0.00 76 1011.7
20260510090016 17 113 1.6 8.0 0.00 0.00 0.00 76 1011.7
20260510085016 17 135 1.6 8.0 0.00 0.00 0.00 76 1011.6
20260510084016 18 113 3.2 8.0 0.00 0.00 0.00 76 1011.7
20260510083037 18 113 1.6 6.4 0.00 0.00 0.00 77 1011.7
20260510082016 17 113 3.2 8.0 0.00 0.00 0.00 76 1011.7
20260510081016 18 113 3.2 8.0 0.00 0.00 0.00 74 1011.7
20260510080015 18 225 1.6 4.8 0.00 0.00 0.00 72 1011.4
20260510075037 18 113 3.2 6.4 0.00 0.00 0.00 70 1011.6
20260510074016 18 0.0 1.6 0.00 0.00 0.00 69 1011.4
20260510073016 18 225 1.6 4.8 0.00 0.00 0.00 69 1011.5
20260510072016 18 113 1.6 4.8 0.00 0.00 0.00 71 1011.4
20260510071016 17 203 1.6 4.8 0.00 0.00 0.00 73 1011.3
20260510070016 17 0.0 1.6 0.00 0.00 0.00 73 1011.3
20260510065017 16 0.0 0.0 0.00 0.00 0.00 73 1011.3
20260510064016 16 0.0 1.6 0.00 0.00 0.00 72 1011.5
20260510063016 16 0.0 1.6 0.00 0.00 0.00 72 1011.5
20260510062036 16 0.0 3.2 0.00 0.00 0.00 73 1011.3
20260510061016 16 0.0 0.0 0.00 0.00 0.00 75 1011.1
20260510060016 16 0.0 0.0 0.00 0.00 0.00 75 1011.1
20260510055017 15 0.0 0.0 0.00 0.00 0.00 74 1010.9
20260510054016 15 0.0 3.2 0.00 0.00 0.00 73 1010.8
20260510053016 15 0.0 0.0 0.00 0.00 0.00 75 1010.8
20260510052036 15 0.0 0.0 0.00 0.00 0.00 74 1010.7
20260510051016 15 0.0 0.0 0.00 0.00 0.00 74 1010.5
20260510050016 15 0.0 0.0 0.00 0.00 0.00 73 1010.6
20260510045015 15 0.0 0.0 0.00 0.00 0.00 73 1010.7
20260510044015 15 0.0 0.0 0.00 0.00 0.00 72 1010.7
20260510043016 15 0.0 0.0 0.00 0.00 0.00 73 1010.7
20260510042015 15 0.0 3.2 0.00 0.00 0.00 73 1010.6
20260510041016 15 0.0 0.0 0.00 0.00 0.00 72 1010.6
20260510040016 15 0.0 0.0 0.00 0.00 0.00 70 1010.5
20260510035016 15 0.0 0.0 0.00 0.00 0.00 69 1010.6
20260510034016 15 0.0 0.0 0.00 0.00 0.00 69 1010.6
20260510033056 16 0.0 0.0 0.00 0.00 0.00 70 1010.6
20260510032039 16 0.0 1.6 0.00 0.00 0.00 70 1010.5
20260510031018 16 0.0 0.0 0.00 0.00 0.00 69 1010.6
20260510030038 16 0.0 0.0 0.00 0.00 0.00 69 1010.9
20260510025016 16 0.0 1.6 0.00 0.00 0.00 67 1011.1
20260510024057 16 0.0 0.0 0.00 0.00 0.00 67 1011.1
20260510023017 16 0.0 0.0 0.00 0.00 0.00 67 1011.2
20260510022019 16 0.0 0.0 0.00 0.00 0.00 65 1011.0
20260510021019 16 0.0 0.0 0.00 0.00 0.00 66 1011.0
20260510020017 16 0.0 0.0 0.00 0.00 0.00 65 1011.2
20260510015037 16 0.0 1.6 0.00 0.00 0.00 66 1011.1
20260510014037 16 203 1.6 4.8 0.00 0.00 0.00 65 1011.0
20260510013017 16 180 1.6 6.4 0.00 0.00 0.00 61 1010.9
20260510012017 16 0.0 3.2 0.00 0.00 0.00 65 1011.1
20260510011017 16 0.0 3.2 0.00 0.00 0.00 67 1011.3
20260510010037 16 0.0 0.0 0.00 0.00 0.00 63 1011.3
20260510005017 16 0.0 0.0 0.00 0.00 0.00 62 1011.5
20260510004017 16 158 1.6 3.2 0.00 0.00 0.00 63 1011.4
20260510003019 16 248 1.6 6.4 0.00 0.00 0.00 60 1011.0
20260510002019 16 0.0 1.6 0.00 0.00 0.00 71 1011.1
20260510001017 16 0.0 1.6 0.00 0.00 0.00 72 1011.5
20260510000017 16 0.0 0.0 0.00 0.00 0.00 69 1011.6
20260509235018 16 0.0 0.0 0.00 0.00 0.00 67 1012.0
20260509234018 16 0.0 1.6 0.00 0.00 0.00 66 1012.0
20260509233017 16 0.0 1.6 0.00 0.00 0.00 66 1011.8
20260509232017 16 0.0 0.0 0.00 0.00 0.00 67 1011.7
20260509231017 16 0.0 0.0 0.00 0.00 0.00 65 1011.7
20260509230017 16 0.0 0.0 0.00 0.00 0.00 64 1011.9
20260509225017 16 0.0 0.0 0.00 0.00 0.00 64 1011.8
20260509224017 16 0.0 0.0 0.00 0.00 0.00 66 1011.6
20260509223037 16 113 1.6 6.4 0.00 0.00 0.00 66 1011.7
20260509222017 16 0.0 3.2 0.00 0.00 0.00 66 1011.7
20260509221038 16 0.0 4.8 0.00 0.00 0.00 68 1012.4
20260509220017 16 0.0 3.2 0.00 0.00 0.00 68 1012.3
20260509215017 16 0.0 4.8 0.00 0.00 0.00 69 1012.4
20260509214016 16 0.0 0.0 0.00 0.00 0.00 67 1012.8
20260509213017 16 0.0 0.0 0.00 0.00 0.00 67 1013.2
20260509212017 16 0.0 0.0 0.00 0.00 0.00 68 1013.0
20260509211037 16 0.0 1.6 0.00 0.00 0.00 67 1012.8
20260509210016 16 0.0 1.6 0.00 0.00 0.00 66 1012.7
20260509205016 16 0.0 0.0 0.00 0.00 0.00 67 1012.8
20260509204037 16 0.0 0.0 0.00 0.00 0.00 68 1012.9
20260509203016 16 0.0 1.6 0.00 0.00 0.00 69 1012.8
20260509202017 16 0.0 1.6 0.00 0.00 0.00 70 1012.9
20260509201137 16 0.0 0.0 0.00 0.00 0.00 69 1012.9
20260509200018 16 0.0 6.4 0.00 0.00 0.00 66 1013.1
20260509195016 16 0.0 1.6 0.00 0.00 0.00 66 1013.3
20260509194057 16 0.0 0.0 0.00 0.00 0.00 66 1013.3
20260509193016 17 0.0 0.0 0.00 0.00 0.00 65 1013.0
20260509192018 17 0.0 0.0 0.00 0.00 0.00 64 1012.8
20260509191018 17 0.0 1.6 0.00 0.00 0.00 63 1012.7
20260509190038 17 0.0 0.0 0.00 0.00 0.00 61 1012.7
20260509185036 17 0.0 0.0 0.00 0.00 0.00 60 1012.6
20260509184017 18 0.0 0.0 0.00 0.00 0.00 60 1012.5
20260509183049 18 0.0 0.0 0.00 0.00 0.00 60 1012.4
20260509182016 18 0.0 0.0 0.00 0.00 0.00 60 1012.1
20260509181016 18 0.0 0.0 0.00 0.00 0.00 58 1012.1
20260509180016 19 0.0 0.0 0.00 0.00 0.00 58 1012.2
20260509175036 19 0.0 0.0 0.00 0.00 0.00 57 1012.1
20260509174016 19 0.0 0.0 0.00 0.00 0.00 57 1012.2
20260509173016 20 0.0 3.2 0.00 0.00 0.00 56 1012.3
20260509172016 20 0.0 3.2 0.00 0.00 0.00 56 1012.3
20260509171016 20 0.0 3.2 0.00 0.00 0.00 55 1012.3
20260509170016 20 0.0 3.2 0.00 0.00 0.00 54 1012.3
20260509165016 20 0.0 3.2 0.00 0.00 0.00 56 1012.4
20260509164016 21 180 1.6 4.8 0.00 0.00 0.00 55 1012.6
20260509163037 21 225 1.6 4.8 0.00 0.00 0.00 54 1012.6
20260509162016 21 135 1.6 3.2 0.00 0.00 0.00 54 1012.7
20260509161016 21 135 1.6 4.8 0.00 0.00 0.00 54 1012.7
20260509160016 21 135 3.2 6.4 0.00 0.00 0.00 54 1012.8
20260509155016 20 203 3.2 6.4 0.00 0.00 0.00 57 1012.8
20260509154036 20 0.0 3.2 0.00 0.00 0.00 56 1012.9
20260509153015 20 203 3.2 9.7 0.00 0.00 0.00 57 1013.0
20260509152036 20 113 1.6 4.8 0.00 0.00 0.00 56 1013.2
20260509151015 20 135 1.6 4.8 0.00 0.00 0.00 56 1013.2
20260509150016 21 113 1.6 4.8 0.00 0.00 0.00 55 1013.3
20260509145016 21 113 1.6 4.8 0.00 0.00 0.00 57 1013.6
20260509144015 21 113 1.6 8.0 0.00 0.00 0.00 55 1013.6
20260509143036 21 225 3.2 6.4 0.00 0.00 0.00 55 1013.8
20260509142016 21 203 1.6 6.4 0.00 0.00 0.00 55 1014.0
20260509141017 21 135 1.6 6.4 0.00 0.00 0.00 53 1014.2
20260509140017 21 113 1.6 8.0 0.00 0.00 0.00 55 1014.4
20260509135058 22 113 1.6 11.3 0.00 0.00 0.00 56 1014.5
20260509134017 22 225 3.2 11.3 0.00 0.00 0.00 57 1014.5
20260509133017 22 113 1.6 8.0 0.00 0.00 0.00 56 1014.8
20260509132018 22 113 3.2 8.0 0.00 0.00 0.00 55 1014.9
20260509131017 21 203 4.8 12.9 0.00 0.00 0.00 55 1015.1
20260509130019 21 135 4.8 11.3 0.00 0.00 0.00 55 1015.2
20260509125057 21 113 4.8 11.3 0.00 0.00 0.00 56 1015.3
20260509124017 22 113 4.8 11.3 0.00 0.00 0.00 57 1015.4
20260509123017 22 180 3.2 8.0 0.00 0.00 0.00 55 1015.4
20260509122017 22 203 4.8 11.3 0.00 0.00 0.00 55 1015.3
20260509121017 22 113 3.2 11.3 0.00 0.00 0.00 53 1015.4
20260509120017 22 225 4.8 11.3 0.00 0.00 0.00 56 1015.4
20260509115057 22 113 4.8 12.9 0.00 0.00 0.00 57 1015.6
20260509114017 22 225 4.8 9.7 0.00 0.00 0.00 57 1015.7
20260509113017 22 113 3.2 8.0 0.00 0.00 0.00 55 1015.9
20260509112017 22 113 3.2 8.0 0.00 0.00 0.00 55 1016.0
20260509111038 21 135 3.2 8.0 0.00 0.00 0.00 56 1015.8
20260509110018 21 135 3.2 12.9 0.00 0.00 0.00 56 1015.8
20260509105037 22 225 4.8 12.9 0.00 0.00 0.00 54 1015.9
20260509104017 22 135 3.2 9.7 0.00 0.00 0.00 54 1015.9